Content
SEND FEEDBACK

Daily
Averages
Monthly
Summary
Canada

FREDERICTON, NEW BRUNSWICK


Home > North America > Canada > New Brunswick
Elevation: 67 feet     Latitude: 45 52N     Longitude: 066 32W

WEATHER
 
SELECT A DAY
Number of Records: 222,157;   Date Range: 1/1/95 - 7/20/14
 
SHARE

PRINT THIS DATA

[ ← Previous Day ]
WEATHER ALMANAC - JANUARY 31, 2013
[ Next Day → ]
[ °C ]   °F
Weather ElementAverageHighLow
Temperature50 °F55.4 °F (7:00 am)32 °F (11:55 pm)
Dewpoint47.6 °F53.6 °F (7:06 am)19.4 °F (10:00 pm)
Humidity91.7 %100 % (12:58 am)56 % (10:00 pm)
Barometer29.10 in29.43 in (12:40 am)28.72 in (2:16 pm)
Wind Speed19.8 mph41.4 mph (3:20 pm)
Wind Gust57.5 mph (3:23 pm)
Weather ElementAverage
Visibility5.7 mi
Wind DirectionSSW (196.4 °)

Weather ElementTotal
Precipitation---
Heating Degree Days21.3 (Base 65)
Averaged from 84 records on January 31, 2013
WEATHER CONDITIONS BREAKOUT
WIND DIRECTION BREAKOUT
WEATHER BY HOUR - JANUARY 31, 2013
[ °C ]   °F
Local TimeTemperatureDewpointHumidityBarometerVisibilityWind DirectionWind SpeedGust SpeedPrecipitationEventsConditions
12:40 AM50.0 °F48.2 °F94 %29.43 in5.0 miSSW (200°)13.8 mph21.9 mphRainLight Rain
12:58 AM50.0 °F50.0 °F100 %29.42 in6.0 miSouth (190°)15.0 mph23.0 mphRainLight Rain
1:00 AM50.0 °F50.0 °F100 %29.42 in6.0 miSouth (190°)13.8 mph23.0 mphRainLight Rain
1:02 AM50.0 °F50.0 °F100 %29.42 in5.0 miSouth (190°)13.8 mph19.6 mphRainLight Rain
1:38 AM50.0 °F50.0 °F100 %29.40 in2.5 miSouth (190°)15.0 mphRainLight Rain
2:00 AM50.0 °F50.0 °F100 %29.39 in2.0 miSouth (190°)15.0 mphRainLight Rain
2:00 AM50.0 °F50.0 °F98 %29.39 in2.0 miSouth (190°)13.8 mphRainLight Rain
2:16 AM50.0 °F50.0 °F100 %29.39 in3.0 miSouth (190°)16.1 mphRainLight Rain
2:21 AM50.0 °F50.0 °F100 %29.39 in3.0 miSouth (190°)15.0 mph21.9 mphRainLight Rain
2:24 AM50.0 °F50.0 °F100 %29.39 in2.0 miSouth (190°)15.0 mph21.9 mphRainLight Rain
2:27 AM50.0 °F50.0 °F100 %29.38 in1.5 miSouth (190°)13.8 mph21.9 mphRainLight Rain
3:00 AM50.0 °F50.0 °F100 %29.37 in1.5 miSouth (190°)13.8 mph20.7 mphRainLight Rain
3:07 AM50.0 °F50.0 °F100 %29.36 in2.0 miSouth (190°)16.1 mph23.0 mphRainLight Rain
3:11 AM50.0 °F50.0 °F100 %29.36 in3.0 miSouth (190°)13.8 mph23.0 mphRainLight Rain
3:13 AM50.0 °F50.0 °F100 %29.36 in3.0 miSouth (190°)15.0 mph23.0 mphRainLight Rain
3:22 AM50.0 °F50.0 °F100 %29.37 in3.0 miSouth (190°)16.1 mph21.9 mphOvercast
4:00 AM50.0 °F50.0 °F100 %29.34 in4.0 miSouth (190°)17.3 mphOvercast
4:21 AM50.0 °F50.0 °F100 %29.34 in2.2 miSouth (190°)16.1 mph24.2 mphOvercast
4:44 AM50.0 °F50.0 °F100 %29.33 in3.0 miSouth (190°)16.1 mph21.9 mphOvercast
4:54 AM51.8 °F50.0 °F94 %29.32 in5.0 miSouth (190°)15.0 mph26.5 mphRainLight Rain
5:00 AM51.8 °F50.0 °F94 %29.31 in6.0 miSouth (190°)15.0 mph24.2 mphRainLight Rain
5:06 AM51.8 °F50.0 °F94 %29.31 in9.0 miSouth (190°)13.8 mph24.2 mphRainLight Rain
5:09 AM51.8 °F50.0 °F94 %29.30 in9.0 miSouth (190°)13.8 mphOvercast
5:24 AM51.8 °F50.0 °F94 %29.29 in5.0 miSouth (190°)13.8 mphOvercast
6:00 AM51.8 °F51.8 °F100 %29.26 in3.0 miSouth (180°)16.1 mph27.6 mphOvercast
6:13 AM51.8 °F51.8 °F100 %29.25 in5.0 miSouth (180°)17.3 mph31.1 mphRainLight Rain
6:15 AM53.6 °F51.8 °F94 %29.25 in6.0 miSouth (190°)16.1 mph31.1 mphRainLight Rain
6:25 AM53.6 °F51.8 °F94 %29.24 in9.0 miSouth (190°)20.7 mph31.1 mphOvercast
6:49 AM53.6 °F51.8 °F94 %29.22 in9.0 miSouth (190°)24.2 mph34.5 mphOvercast
7:00 AM55.4 °F51.8 °F88 %29.20 in9.0 miSouth (190°)23.0 mph36.8 mphRainLight Rain
7:06 AM55.4 °F53.6 °F94 %29.19 in5.0 miSouth (190°)26.5 mph41.4 mphRainRain
7:25 AM53.6 °F51.8 °F94 %29.19 in6.0 miSouth (170°)16.1 mph29.9 mphRainLight Rain
7:59 AM53.6 °F51.8 °F94 %29.18 in5.0 miSouth (180°)18.4 mph27.6 mphRainLight Rain
8:00 AM53.0 °F52.0 °F94 %29.18 in5.0 miSouth (180°)19.6 mphRainLight Rain
8:00 AM53.6 °F51.8 °F94 %29.17 in5.0 miSouth (180°)19.6 mph27.6 mphRainLight Rain
8:13 AM53.6 °F51.8 °F94 %29.16 in2.5 miSouth (170°)21.9 mph32.2 mphRainLight Rain
8:38 AM53.6 °F51.8 °F94 %29.14 in3.0 miSouth (180°)18.4 mph35.7 mphRainLight Rain
8:53 AM53.6 °F51.8 °F94 %29.11 in6.0 miSouth (180°)23.0 mph34.5 mphRainLight Rain
8:58 AM53.6 °F51.8 °F94 %29.12 in8.0 miSouth (180°)21.9 mph35.7 mphOvercast
9:00 AM53.6 °F51.8 °F94 %29.11 in8.0 miSouth (180°)25.3 mph35.7 mphOvercast
9:01 AM53.6 °F51.8 °F94 %29.11 in8.0 miSouth (180°)23.0 mph35.7 mphRainLight Rain
9:16 AM53.6 °F51.8 °F94 %29.10 in5.0 miSouth (180°)24.2 mph44.9 mphRainLight Rain
9:33 AM53.6 °F51.8 °F94 %29.08 in6.0 miSouth (180°)26.5 mph34.5 mphRainLight Rain
9:45 AM53.6 °F51.8 °F94 %29.05 in5.0 miSouth (180°)23.0 mph41.4 mphRainLight Rain
10:00 AM53.6 °F51.8 °F94 %29.04 in6.0 miSouth (180°)19.6 mph35.7 mphRainLight Rain
10:14 AM53.6 °F51.8 °F94 %29.03 in5.0 miSouth (170°)24.2 mph33.4 mphRainLight Rain
10:21 AM53.6 °F51.8 °F94 %29.02 in6.0 miSouth (180°)19.6 mph33.4 mphRainLight Rain
10:32 AM53.6 °F51.8 °F94 %29.00 in5.0 miSouth (180°)24.2 mph36.8 mphRainLight Rain
10:47 AM55.4 °F51.8 °F88 %28.98 in6.0 miSouth (170°)21.9 mph39.1 mphRainLight Rain
11:00 AM55.4 °F51.8 °F88 %28.97 in7.0 miSouth (180°)24.2 mph38.0 mphRainLight Rain
11:11 AM55.4 °F51.8 °F88 %28.96 in5.0 miSouth (180°)23.0 mph36.8 mphRainLight Rain
11:40 AM53.6 °F51.8 °F94 %28.92 in2.5 miSouth (180°)24.2 mph38.0 mphRainLight Rain
12:00 PM53.6 °F51.8 °F94 %28.91 in2.0 miSouth (180°)20.7 mph31.1 mphRainLight Rain
12:20 PM53.6 °F51.8 °F94 %28.88 in2.5 miSouth (190°)25.3 mph38.0 mphRainLight Rain
12:22 PM55.4 °F53.6 °F94 %28.87 in3.0 miSouth (190°)28.8 mph41.4 mphRainLight Rain
12:53 PM55.4 °F51.8 °F88 %28.80 in6.0 miSouth (170°)26.5 mph38.0 mphRainLight Rain
1:00 PM55.4 °F51.8 °F88 %28.77 in9.0 miSouth (170°)24.2 mph39.1 mphRainLight Rain
1:11 PM55.4 °F51.8 °F88 %28.78 in9.0 miSouth (180°)35.7 mph49.5 mphRainLight Rain
1:14 PM55.4 °F51.8 °F88 %28.78 in9.0 miSouth (180°)32.2 mph49.5 mphOvercast
1:19 PM55.4 °F51.8 °F88 %28.77 in9.0 miSouth (180°)28.8 mph49.5 mphRainLight Rain
1:25 PM55.4 °F53.6 °F94 %28.77 in5.0 miSouth (190°)35.7 mph49.5 mphRainLight Rain
2:00 PM55.4 °F51.8 °F88 %28.73 in3.0 miSouth (190°)29.9 mph50.6 mphRainLight Rain
2:16 PM53.6 °F51.8 °F94 %28.72 in5.0 miSouth (190°)26.5 mph40.3 mphOvercast
2:17 PM53.6 °F51.8 °F94 %28.72 in6.0 miSouth (190°)24.2 mph40.3 mphOvercast
2:24 PM53.6 °F50.0 °F88 %28.73 in9.0 miSouth (190°)35.7 mph46.0 mphOvercast
3:00 PM53.6 °F50.0 °F88 %28.72 in9.0 miSouth (190°)23.0 mph33.4 mphOvercast
3:18 PM51.8 °F48.2 °F88 %28.72 in4.0 miSouth (190°)29.9 mph43.7 mphHaze
3:20 PM51.8 °F46.4 °F82 %28.74 in3.0 miSW (220°)41.4 mph51.8 mphRainLight Rain
3:23 PM50.0 °F46.4 °F87 %28.79 in2.5 miWSW (250°)28.8 mph57.5 mphRainLight Rain
3:28 PM46.4 °F44.6 °F93 %28.80 in4.0 miWest (270°)20.7 mph57.5 mphRainLight Rain
3:39 PM44.6 °F42.8 °F93 %28.82 in6.0 miWest (260°)12.7 mph25.3 mphRainLight Rain
3:55 PM42.8 °F41.0 °F93 %28.85 in9.0 miWest (260°)10.4 mph18.4 mph
4:00 PM42.8 °F41.0 °F93 %28.87 in9.0 miWSW (250°)21.9 mph38.0 mph
5:00 PM41.0 °F35.6 °F81 %28.92 in9.0 miWSW (240°)13.8 mph23.0 mph
5:25 PM39.2 °F35.6 °F87 %28.95 in9.0 miSW (230°)11.5 mphRainLight Rain
5:51 PM37.4 °F33.8 °F87 %28.99 in9.0 miWSW (240°)15.0 mph23.0 mph
6:00 PM37.4 °F32.0 °F81 %29.00 in9.0 miWSW (240°)13.8 mph26.5 mph
7:00 PM35.6 °F30.2 °F81 %29.04 in9.0 miWSW (240°)8.1 mph
8:00 PM35.0 °F29.0 °F72 %29.08 in10.0 miSSW (210°)11.5 mphClear
8:00 PM33.8 °F28.4 °F81 %29.08 in9.0 miSSW (210°)12.7 mph19.6 mph
9:00 PM33.8 °F24.8 °F70 %29.08 in9.0 miWSW (250°)10.4 mph19.6 mph
10:00 PM33.8 °F19.4 °F56 %29.11 in9.0 miWSW (240°)15.0 mph24.2 mph
11:00 PM33.8 °F19.4 °F56 %29.14 in9.0 miWSW (250°)12.7 mph23.0 mph
11:55 PM32.0 °F23.0 °F69 %29.16 in9.0 miWSW (250°)16.1 mph24.2 mphRainLight Rain
Hourly data recorded from CYFC, located miles away from Fredericton, New Brunswick







STORIES FROM OUR PARTNERS